Total_Precipitation_Accumulation
0.00 0.01 0.07 0.05 0.01 0.00 0.00 0.00 0.00 0.00 0.02 0.05 0.06 0.04 0.03 0.04 0.05 0.06 0.05 0.04 0.05 0.02 0.00 0.02 0.05 0.07 0.08 0.04 0.02 0.01 0.01 0.02 0.01 0.01 0.02 0.03 0.05 0.05 0.05 0.04 0.03 0.02 0.01
0.00 0.01 0.06 0.07 0.01 0.01 0.01 0.00 0.00 0.01 0.04 0.06 0.06 0.04 0.06 0.06 0.09 0.06 0.05 0.03 0.01 0.01 0.02 0.04 0.03 0.03 0.02 0.01 0.00 0.00 0.00 0.00 0.00 0.00 0.00 0.01 0.04 0.05 0.03 0.03 0.05 0.05 0.06
0.00 0.01 0.03 0.09 0.03 0.02 0.01 0.00 0.00 0.02 0.04 0.06 0.07 0.07 0.11 0.11 0.10 0.08 0.04 0.01 0.00 0.01 0.02 0.02 0.02 0.01 0.00 0.00 0.00 0.00 0.00 0.00 0.00 0.00 0.00 0.00 0.01 0.03 0.02 0.02 0.03 0.04 0.05
0.01 0.01 0.03 0.10 0.04 0.01 0.00 0.00 0.02 0.02 0.02 0.03 0.06 0.11 0.19 0.15 0.09 0.04 0.01 0.00 0.00 0.02 0.03 0.02 0.01 0.00 0.00 0.00 0.00 0.00 0.00 0.00 0.00 0.00 0.00 0.00 0.00 0.00 0.00 0.01 0.00 0.01 0.01
0.03 0.03 0.04 0.10 0.07 0.03 0.01 0.01 0.04 0.01 0.01 0.03 0.10 0.23 0.25 0.23 0.05 0.01 0.00 0.00 0.01 0.02 0.02 0.01 0.00 0.00 0.00 0.00 0.00 0.00 0.00 0.00 0.00 0.00 0.00 0.00 0.00 0.00 0.00 0.00 0.00 0.00 0.00
0.04 0.06 0.06 0.15 0.10 0.03 0.01 0.04 0.03 0.01 0.02 0.02 0.14 0.32 0.37 0.21 0.02 0.00 0.00 0.01 0.01 0.01 0.01 0.00 0.00 0.01 0.00 0.00 0.00 0.00 0.00 0.00 0.00 0.00 0.00 0.00 0.00 0.00 0.00 0.00 0.00 0.00 0.00
0.05 0.14 0.16 0.30 0.14 0.02 0.02 0.05 0.02 0.02 0.05 0.02 0.12 0.38 0.41 0.11 0.01 0.01 0.00 0.01 0.01 0.01 0.00 0.01 0.01 0.00 0.00 0.00 0.00 0.00 0.00 0.00 0.00 0.00 0.00 0.00 0.00 0.00 0.00 0.00 0.00 0.00 0.00
0.12 0.19 0.22 0.35 0.33 0.11 0.03 0.04 0.02 0.03 0.05 0.03 0.14 0.42 0.47 0.07 0.01 0.01 0.01 0.01 0.01 0.01 0.01 0.01 0.00 0.00 0.00 0.00 0.00 0.00 0.00 0.00 0.00 0.00 0.00 0.00 0.00 0.00 0.00 0.00 0.00 0.00 0.00
0.60 0.46 0.30 0.27 0.26 0.09 0.05 0.03 0.02 0.03 0.04 0.05 0.12 0.32 0.27 0.02 0.01 0.01 0.01 0.01 0.01 0.00 0.00 0.00 0.00 0.00 0.00 0.00 0.00 0.00 0.00 0.00 0.00 0.00 0.00 0.00 0.00 0.00 0.00 0.00 0.00 0.00 0.00
0.97 0.90 0.52 0.47 0.20 0.01 0.07 0.05 0.01 0.02 0.02 0.02 0.12 0.28 0.07 0.00 0.00 0.01 0.01 0.02 0.02 0.01 0.00 0.00 0.00 0.00 0.00 0.00 0.00 0.00 0.00 0.00 0.00 0.00 0.00 0.00 0.00 0.00 0.00 0.00 0.00 0.00 0.00
1.55 1.09 0.93 0.77 0.33 0.04 0.15 0.11 0.01 0.02 0.02 0.01 0.06 0.20 0.06 0.00 0.00 0.00 0.00 0.02 0.01 0.00 0.00 0.00 0.00 0.00 0.00 0.00 0.00 0.00 0.00 0.00 0.00 0.00 0.00 0.00 0.00 0.00 0.00 0.00 0.00 0.00 0.00
1.50 1.23 1.31 1.00 0.87 0.17 0.13 0.18 0.06 0.02 0.01 0.00 0.01 0.09 0.04 0.00 0.00 0.00 0.00 0.01 0.01 0.00 0.00 0.00 0.00 0.00 0.00 0.00 0.00 0.00 0.00 0.00 0.00 0.00 0.00 0.00 0.00 0.00 0.00 0.00 0.00 0.00 0.00
1.53 1.30 1.19 1.03 1.32 0.72 0.37 0.29 0.21 0.03 0.01 0.01 0.00 0.02 0.04 0.00 0.00 0.00 0.00 0.00 0.00 0.00 0.00 0.00 0.00 0.00 0.00 0.00 0.00 0.00 0.00 0.00 0.00 0.00 0.00 0.00 0.00 0.00 0.00 0.00 0.00 0.00 0.00
0.61 1.45 1.63 1.29 1.32 1.28 0.97 0.48 0.24 0.09 0.01 0.01 0.00 0.00 0.01 0.00 0.00 0.00 0.00 0.00 0.00 0.00 0.00 0.00 0.00 0.00 0.00 0.00 0.00 0.00 0.00 0.00 0.00 0.00 0.00 0.00 0.00 0.00 0.00 0.00 0.00 0.00 0.01
0.33 0.64 0.82 1.07 1.48 1.56 1.04 0.92 0.59 0.22 0.04 0.00 0.00 0.00 0.00 0.00 0.00 0.00 0.00 0.00 0.00 0.00 0.00 0.00 0.00 0.00 0.00 0.00 0.00 0.00 0.00 0.00 0.00 0.00 0.00 0.00 0.00 0.00 0.00 0.00 0.00 0.02 0.08
0.25 0.28 0.35 0.45 0.75 1.25 1.06 0.40 0.64 0.54 0.23 0.03 0.00 0.00 0.00 0.00 0.00 0.00 0.00 0.00 0.00 0.00 0.00 0.00 0.00 0.00 0.00 0.00 0.00 0.00 0.00 0.00 0.00 0.00 0.00 0.00 0.00 0.00 0.00 0.00 0.00 0.02 0.14
0.13 0.17 0.16 0.26 0.33 0.56 1.12 0.58 0.24 0.32 0.46 0.19 0.02 0.00 0.00 0.00 0.00 0.00 0.00 0.00 0.00 0.00 0.00 0.00 0.00 0.00 0.00 0.00 0.00 0.00 0.00 0.00 0.00 0.00 0.00 0.00 0.00 0.00 0.00 0.00 0.00 0.00 0.01
0.20 0.12 0.13 0.14 0.17 0.17 0.27 0.37 0.22 0.18 0.24 0.33 0.14 0.01 0.00 0.00 0.00 0.00 0.00 0.00 0.00 0.00 0.00 0.00 0.00 0.00 0.00 0.00 0.00 0.00 0.00 0.00 0.00 0.00 0.00 0.00 0.00 0.00 0.00 0.00 0.00 0.00 0.00
0.24 0.32 0.25 0.26 0.29 0.25 0.19 0.17 0.18 0.16 0.11 0.20 0.28 0.11 0.01 0.00 0.00 0.00 0.00 0.00 0.00 0.00 0.00 0.00 0.00 0.00 0.00 0.00 0.00 0.00 0.00 0.00 0.00 0.00 0.00 0.00 0.00 0.00 0.00 0.00 0.00 0.00 0.00
0.27 0.38 0.38 0.36 0.37 0.49 0.49 0.51 0.55 0.37 0.12 0.24 0.28 0.24 0.14 0.02 0.01 0.00 0.00 0.00 0.00 0.00 0.00 0.00 0.00 0.00 0.00 0.00 0.00 0.00 0.00 0.00 0.00 0.00 0.00 0.00 0.00 0.01 0.00 0.00 0.00 0.00 0.00
0.59 0.55 0.63 0.60 0.47 0.69 0.68 0.63 0.45 0.39 0.18 0.05 0.13 0.24 0.32 0.22 0.13 0.07 0.01 0.00 0.00 0.00 0.00 0.00 0.00 0.00 0.00 0.00 0.02 0.01 0.00 0.00 0.00 0.00 0.00 0.00 0.00 0.00 0.00 0.00 0.00 0.00 0.00
0.79 0.93 0.76 0.71 0.83 0.67 0.71 0.71 0.67 0.64 0.54 0.37 0.37 0.36 0.37 0.38 0.33 0.34 0.27 0.13 0.05 0.03 0.02 0.02 0.00 0.00 0.01 0.01 0.04 0.04 0.02 0.00 0.00 0.00 0.00 0.00 0.00 0.00 0.00 0.00 0.00 0.00 0.00
0.94 0.91 1.00 0.95 0.91 0.71 0.91 1.22 1.30 1.32 1.08 0.79 0.42 0.42 0.51 0.46 0.57 0.59 0.60 0.71 0.65 0.47 0.35 0.31 0.17 0.11 0.15 0.10 0.09 0.10 0.04 0.01 0.00 0.00 0.00 0.00 0.00 0.00 0.00 0.00 0.00 0.00 0.00
0.80 0.77 0.89 1.15 1.18 1.29 1.12 1.41 1.53 1.78 1.77 1.41 1.54 1.20 0.88 0.85 0.86 0.95 0.99 1.07 1.05 0.87 0.98 1.11 0.98 0.77 0.68 0.53 0.43 0.27 0.16 0.09 0.04 0.01 0.00 0.00 0.00 0.00 0.00 0.00 0.00 0.00 0.00
0.49 0.55 0.56 0.73 1.10 1.62 1.40 1.65 2.00 1.64 1.58 1.46 1.30 1.15 1.11 1.04 0.90 0.87 1.04 1.17 1.29 1.29 1.07 0.95 1.10 1.16 1.10 0.99 0.78 0.50 0.25 0.12 0.07 0.03 0.00 0.00 0.00 0.00 0.00 0.00 0.00 0.00 0.00
0.22 0.31 0.41 0.46 0.70 1.07 1.57 1.69 1.86 1.92 1.63 1.37 1.29 1.06 0.93 0.86 0.80 0.78 0.84 1.01 1.03 0.91 0.82 0.75 0.62 0.55 0.61 0.64 0.66 0.61 0.46 0.34 0.24 0.16 0.09 0.03 0.01 0.00 0.00 0.00 0.00 0.00 0.00